Regional Weather Roundup
Issued by NWS

Home | Current Version | Previous Version | Graphics & Text | Print | Product List | Glossary On
Versions: 1 2 3 4 5 6 7 8 9 10 11 12 13 14 15 16 17 18 19 20 21 22 23 24 25 26 27 28 29 30 31 32 33 34 35 36 37 38 39 40 41 42 43 44 45 46 47 48 49 50
000
ASUS43 KIND 240059
RWRIN

WEATHER ROUNDUP FOR INDIANA
NATIONAL WEATHER SERVICE INDIANAPOLIS IN
900 PM EDT WED MAY 23 2018

NOTE: "FAIR" INDICATES FEW OR NO CLOUDS BELOW 12,000 FEET WITH NO
SIGNIFICANT WEATHER AND/OR OBSTRUCTIONS TO VISIBILITY.

* - STATION DOES NOT REPORT WEATHER SUCH AS PRECIPITATION OR FOG.

+ - STATION NOT QUALITY CONTROLLED BY THE NATIONAL WEATHER SERVICE.
    USE DATA WITH CAUTION...ESPECIALLY DEWPOINT AND RELATIVE
    HUMIDITY OBSERVATIONS.

INZ001>003-010>013-019-020-240200-
NORTHWEST INDIANA

CITY           SKY/WX    TMP DP  RH WIND       PRES   REMARKS
GARY /AIRPORT/ PTCLDY    63  57  82 VRB5      30.17R
MICHIGAN CITY+ FAIR      63  50  63 CALM      30.17S
MONTICELLO +   FAIR      75  51  43 CALM      30.14R

$$

LMZ046-743>745-240200-
SOUTHERN LAKE MICHIGAN

STATION/POSITION TIME  TEMP    WIND        PRES    WAVE
                       AIR SEA DIR/SP/G            HT
                 (UTC) (F)     (DEG/KT/KT) (MB)    (FT)
BURNS HARBOR     0040   59      80/  9/ 10 1021.7S
MICHIGAN CITY    0030   58      40/ 11/ 11   N/A
5NW MICH CITY    0050   57 57   70/  4/  6   N/A     0

$$

INZ004-005-014>016-021>024-240200-
NORTH CENTRAL INDIANA

CITY           SKY/WX    TMP DP  RH WIND       PRES   REMARKS
ELKHART        FAIR      73  57  56 CALM      30.16R
GOSHEN         FAIR      73  51  46 CALM      30.16R
SOUTH BEND     FAIR      69  58  67 N5        30.17R

$$

INZ006>009-017-018-025>027-240200-
NORTHEAST INDIANA

CITY           SKY/WX    TMP DP  RH WIND       PRES   REMARKS
ANGOLA *+      FAIR      70  54  56 CALM      30.17R
FORT WAYNE     MOCLDY    71  54  54 NE5       30.16R
KENDALLVILLE + FAIR      71  48  45 CALM      30.17R

$$

INZ028-029-035-036-043>045-051>053-240200-
WEST CENTRAL INDIANA

CITY           SKY/WX    TMP DP  RH WIND       PRES   REMARKS
CRAWFORDSVL +  FAIR      72  52  49 NE3       30.14R
GREENCASTLE +  FAIR      73  52  46 CALM      30.14R
LAFAYETTE      FAIR      73  52  47 NE3       30.13R
TERRE HAUTE    FAIR      75  57  53 E6        30.11R

$$

INZ030>032-037>040-046>048-054>057-064-065-240200-
CENTRAL INDIANA

CITY           SKY/WX    TMP DP  RH WIND       PRES   REMARKS
ANDERSON       FAIR      73  49  42 CALM      30.15R
COLUMBUS       MOCLDY    72  54  53 E5        30.13R
INDIANAPOLIS   MOCLDY    77  47  34 NE9       30.13R
-EAGLE CREEK   FAIR      77  49  37 NE5       30.12R
KOKOMO +       FAIR      71  54  54 NE7       30.15S
MT COMFORT *+  FAIR      72  57  60 E7        30.14S
SHELBYVILLE    FAIR      75  53  46 E7        30.12R

$$

INZ033-034-041-042-049-050-058-059-240200-
EAST CENTRAL INDIANA

CITY           SKY/WX    TMP DP  RH WIND       PRES   REMARKS
MUNCIE         FAIR      72  51  47 E6        30.15R
RICHMOND +     FAIR      66  57  72 NE5       30.16S

$$

INZ060-061-067>069-081>083-085>088-240200-
SOUTHWEST INDIANA

CITY           SKY/WX    TMP DP  RH WIND       PRES   REMARKS
EVANSVILLE     FAIR      79  62  56 CALM      30.10R
HUNTINGBURG +  FAIR      76  59  55 NE6       30.11R

$$

INZ062-063-066-070>080-084-089>092-240200-
SOUTH CENTRAL AND SOUTHEAST INDIANA

CITY           SKY/WX    TMP DP  RH WIND       PRES   REMARKS
BLOOMINGTON    FAIR      77  58  51 E3        30.13R
FRENCH LICK *+ FAIR      73  46  38 CALM      30.13R
SEYMOUR +      FAIR      75  57  53 E6        30.12R

$$




USA.gov is the U.S. government's official web portal to all federal, state and local government web resources and services.